Voltar ao catálogo

DELTA 1 DEB

AtivoSSO
NORAD 12179·DEBRIS·🇺🇸 United States

Lançado Mar 5, 1978 de Vandenberg Space Force Base

Loading…

Próximas Passagens (próximas 24 horas)

TLE

AtualizadoSource: Space-Track

Época: Sep 14, 2026, 02:53 UTC

1 12179U 78026U   26257.12066446  .00000333  00000-0  19674-3 0  9993
2 12179  99.1793 202.2450 0161623 249.0416 178.5383 14.08455413326449

Acompanhe DELTA 1 DEB em tempo real com AllMySat

Download on the App Store